sat.trackr.live / text

‹ back to catalog

STARLINK-34197

NORAD 64184 · 2025-113Q

PAYLOAD ACTIVE UNKNOWN

§ Identity

Operator
Country
US
Launch date
2025-05-28
Launch site
AFETR
Launch vehicle
Mass (kg)
RCS (m²)

Purposes: comms

External: N2YO · Heavens-Above · Gunter

§ Orbital elements

Epoch: 2026-09-20T00:22:52.817376Z

Period
93.85 min
Inclination
53.1571°
Eccentricity
0.0002126
Mean motion
15.34397026 rev/d
Perigee alt
461.3 km
Apogee alt
464.2 km
Semi-major
6,840.8 km
B*
4.6360e-4
RAAN
268.0592°
Arg perigee
84.4725°
Mean anomaly
275.6520°
Rev number
7,482

§ Raw data

STARLINK-341971 64184U 25113Q   26263.01588909  .00015318  00000+0  46360-3 0  99932 64184  53.1571 268.0592 0002126  84.4725 275.6520 15.34397026 74828

JSON: /api/v1/satellites/64184 · /tle

For live sub-satellite position, see the globe view (requires WebGL).

§ Visibility from observer

Set your observer location to see the next 7 days of passes ≥ 10°. The values pass through the URL so the page stays shareable.

No JS? Fill the form by hand. The geolocation button needs JavaScript.